Regional Weather Roundup
Issued by NWS

Home | Current Version | Previous Version | Text Only | Print | Product List | Glossary Off
Versions: 1 2 3 4 5 6 7 8 9 10 11 12 13 14 15 16 17 18 19 20 21 22 23 24 25 26 27 28 29 30 31 32 33 34 35 36 37 38 39 40 41 42 43 44 45 46 47 48 49 50

000
ASUS43 KDTX 271510
RWRMI
MICHIGAN HOURLY REGIONAL WEATHER ROUNDUP
NATIONAL WEATHER SERVICE DETROIT/PONTIAC MI
1000 AM EST FRI FEB 27 2015

NOTE: "FAIR" INDICATES FEW OR NO CLOUDS BELOW 12,000 FEET WITH NO
SIGNIFICANT WEATHER AND/OR OBSTRUCTION TO VISIBILITY.

MIZ047>049-052>055-059>063-066>070-074>076-081>083-271600-
SOUTHEAST LOWER MICHIGAN

CITY           SKY/WX    TMP DP  RH WIND       PRES   REMARKS
ADRIAN         SUNNY      2  -7  66 CALM      30.54R
ALMA           MOSUNNY    4  -7  60 SW7       30.52R
ANN ARBOR      SUNNY      1  -5  75 W3        30.52R
BAD AXE        SUNNY      3  -6  66 W7        30.50R
DETROIT CITY   PTSUNNY   10   2  69 VRB3      30.53R
DETROIT        SUNNY      6  -2  69 SW3       30.54R
FLINT          SUNNY      2  -5  72 S3        30.51R
GROSSE ILE     SUNNY      7   1  78 SW5       30.53R
HILLSDALE      SUNNY      2  -3  80 CALM      30.47S
HOWELL         SUNNY      1  -7  68 CALM      30.49R

CITY           SKY/WX    TMP DP  RH WIND       PRES   REMARKS
JACKSON        SUNNY      2  -4  76 CALM      30.51R
LAMBERTVILLE   SUNNY      5  -4  66 NW5       30.55R
LANSING        SUNNY      6  -5  60 CALM      30.52R
LAPEER         NOT AVBL
MASON          SUNNY      2  -8  62 CALM      30.51R
MT. CLEMENS    MOSUNNY    5  -2  71 N3        30.51R
PONTIAC        SUNNY      2   2 100 CALM      30.48R
PORT HOPE        N/A      4  -8  57 W6        30.49R
PORT HURON     SUNNY      3  -2  78 W5        30.52S
TRI CITIES     SUNNY      1  -9  62 SW7       30.52R
YPSILANTI      SUNNY      4   1  88 CALM      30.54R
$$
MIZ043>046-050>051-056>058-064>065-071>073-077>080-271600-
SOUTHWEST LOWER MICHIGAN

CITY           SKY/WX    TMP DP  RH WIND       PRES   REMARKS
BATTLE CREEK   MOSUNNY    3  -9  57 S8        30.52R
BENTON HARBOR  MOSUNNY    8  -5  55 S5        30.55R
BIG RAPIDS     LGT SNOW  -9 -14  76 CALM      30.48R
COLDWATER      SUNNY      1  -4  78 W3        30.52R
HOLLAND        MOSUNNY    7  -8  50 S8        30.54R
GRAND RAPIDS   MOSUNNY    4  -9  55 SW8       30.53R
KALAMAZOO      MOSUNNY    4  -7  60 SW3       30.53R
MARSHALL       SUNNY      1  -4  80 CALM      30.51R
MUSKEGON       LGT SNOW   9   3  77 S7        30.53R VSB 3/4
$$
MIZ016>042-271600-
NORTHERN LOWER MICHIGAN

CITY           SKY/WX    TMP DP  RH WIND       PRES   REMARKS
ALPENA         MIX PCPN   4  -5  66 W8        30.46R
BEAVER ISLAND  FLURRIES   6   3  86 W7        30.43S
BELLAIRE       SUNNY      1  -4  78 S6        30.49R
CADILLAC       FLURRIES  -6 -12  75 SW3       30.41R
CHARLEVOIX     SUNNY      5   0  79 CALM      30.47R
FRANKFORT      CLOUDY     3  -2  81 CALM      30.48R
GAYLORD        SUNNY      1  -4  79 SW8       30.38R
GRAYLING       SUNNY     -7 -13  73 CALM      30.43R
HARBOR SPRINGS SUNNY      3  -4  70 CALM      30.44R
HOUGHTON LAKE  SUNNY     -3 -10  72 W3        30.44R
MANISTEE       CLOUDY     0  -6  78 E3        30.50R
OSCODA         SUNNY      3  -6  68 SW10      30.48S WCI -13
PELLSTON       SUNNY      1  -4  79 CALM      30.44R
TRAVERSE CITY  MOSUNNY    3  -3  76 W3        30.47R
$$
MIZ007>008-015-271600-
EASTERN UPPER MICHIGAN

CITY           SKY/WX    TMP DP  RH WIND       PRES   REMARKS
KINROSS        SUNNY      3   0  85 W6        30.40R
MACKINAC ISLAN SUNNY      3  -3  75 W9        30.42R
NEWBERRY       SUNNY      1  -4  80 W8        30.39S
S. S. MARIE    SUNNY      0  -5  79 CALM      30.41R
$$
MIZ004>006-011>014-085-271600-
CENTRAL UPPER MICHIGAN

CITY           SKY/WX    TMP DP  RH WIND       PRES   REMARKS
MANISTIQUE     SUNNY      3  -6  65 W5        30.43R
ESCANABA       SUNNY      3 -17  39 W9        30.47R
MENOMINEE      SUNNY      3  -8  60 CALM      30.48R
SAWYER-GWINN   SUNNY      0  -6  78 W7        30.35R
$$
MIZ001>003-009>011-084-271600-
WESTERN UPPER MICHIGAN

CITY           SKY/WX    TMP DP  RH WIND       PRES   REMARKS
IRON MOUNTAIN  SUNNY      0 -10  63 W8        30.40R
HOUGHTON       SUNNY      4  -4  69 W16G23    30.35R WCI -15
COPPER HARBOR    N/A     10  -2  58 NW9G18    30.37S
IRONWOOD       SUNNY      0  -9  65 W9        30.38R
$$

ABBREVIATIONS USED IN REMARKS
   TC - TEMPERATURE IN CELSIUS
  WCI - WIND CHILL INDEX
   HX - HEAT INDEX
  VSB - VISIBILITY



USA.gov is the U.S. government's official web portal to all federal, state and local government web resources and services.